Wind_Speed
27 26 24 23 23 23 23 25 26 28 31 32 31 30 30 29 28 26 26 26 28 31 32 33 35 35 34 33 32 31 31 31 32 33 34 34 38 41
28 27 24 22 22 22 22 22 24 26 29 32 31 30 29 29 28 28 26 26 28 30 32 34 34 34 34 34 34 33 32 32 33 33 32 33 36 38
31 29 26 23 21 20 21 21 21 23 25 28 30 30 30 29 28 28 28 29 30 31 31 31 30 30 29 29 30 30 29 29 29 29 29 29 34 40
30 30 27 24 21 20 20 20 20 21 23 25 28 29 30 30 30 31 31 31 30 28 26 25 24 23 23 23 23 23 24 25 25 25 26 27 30 36
29 29 27 24 22 21 20 20 19 19 21 25 27 30 31 32 32 32 32 31 28 26 25 25 25 24 23 23 21 21 21 22 23 23 22 22 24 29
30 29 27 25 23 22 20 19 18 18 19 23 27 30 32 33 33 32 31 29 28 27 27 26 25 25 23 21 21 20 19 18 18 17 17 17 19 21
32 31 30 27 25 23 21 19 18 18 18 21 24 28 31 32 31 30 30 29 27 25 26 26 24 22 20 18 17 16 16 16 16 16 17 17 18 19
35 33 32 30 27 24 23 21 19 18 19 20 21 22 25 27 28 31 32 29 26 24 24 22 20 18 16 14 15 16 16 17 18 19 19 19 20 21
40 36 33 32 29 26 24 23 20 18 18 19 19 19 20 23 26 28 28 28 25 22 19 17 15 14 13 14 15 16 17 17 17 18 19 20 21 22
44 40 35 32 30 27 25 24 21 17 16 16 17 17 19 22 23 24 25 24 22 19 16 14 13 12 13 14 15 14 14 14 14 16 17 19 20 22
47 42 37 34 31 28 27 25 22 18 15 14 15 16 20 22 22 21 21 21 19 17 15 13 13 12 13 13 12 12 12 12 13 13 14 16 17 19
51 47 42 38 34 31 29 27 24 21 18 16 15 17 20 23 23 21 19 17 16 14 14 13 13 12 11 11 11 11 10 10 11 12 13 15 18 21
54 51 48 43 38 35 32 30 27 23 20 18 17 18 19 20 20 20 19 18 16 15 14 13 12 11 10 10 10 11 11 12 13 15 16 17 20 23
55 55 51 46 42 38 34 33 30 25 21 18 17 16 17 17 18 19 17 16 16 15 15 14 12 10 9 10 11 12 13 16 17 18 19 20 22 24
52 52 51 49 46 41 37 34 32 27 23 19 16 16 18 19 19 17 17 16 16 16 15 13 12 10 10 11 13 15 17 19 20 21 23 24 24 25
51 51 51 50 47 43 38 35 32 28 24 20 18 18 19 19 18 18 17 17 17 16 15 14 12 12 13 14 17 19 21 23 24 25 26 26 27 27
50 51 51 49 44 40 37 33 31 28 25 22 20 20 19 18 18 18 17 17 17 16 14 14 14 14 16 19 21 24 26 27 28 28 29 30 30 30
49 47 46 44 40 37 33 30 29 28 26 24 23 22 21 20 19 18 18 17 16 15 14 14 16 18 20 22 23 25 26 26 27 29 31 32 32 32
47 44 42 39 36 33 31 29 29 28 26 24 23 23 23 21 20 19 18 16 16 15 15 17 18 20 22 23 24 25 26 28 31 32 33 34 34 34
43 41 39 36 33 31 29 29 28 26 24 23 24 23 22 20 20 19 18 17 15 15 17 19 20 21 23 24 26 29 31 32 33 33 33 33 34 35
42 39 37 34 32 30 29 29 28 27 25 24 23 22 21 20 20 19 17 16 16 17 18 20 22 23 25 27 28 29 31 33 33 32 33 33 35 36
38 36 34 33 32 30 30 30 29 28 26 24 22 20 19 19 18 17 16 16 17 18 20 22 24 26 27 28 28 28 28 30 31 31 32 33 34 34
34 34 32 32 31 31 31 31 30 28 25 21 19 18 17 17 16 16 16 17 18 20 21 23 25 25 25 25 26 27 28 28 29 30 30 30 29 29
Wind_Direction
285 291 301 311 315 311 300 286 270 259 255 255 258 259 260 259 261 262 259 257 257 258 259 259 260 261 261 261 263 263 261 261 262 261 255 251 249 246
280 285 292 301 308 309 306 294 278 265 257 254 254 254 255 256 257 257 255 256 259 260 261 262 261 261 260 259 259 260 259 260 260 259 253 248 243 240
276 279 284 291 299 308 310 301 287 273 262 255 252 250 251 252 252 252 254 259 263 264 264 262 260 259 257 255 253 252 255 257 258 255 251 249 244 239
273 275 277 283 293 304 310 307 296 280 267 257 250 247 248 249 251 253 257 261 265 265 262 257 256 253 251 248 247 251 255 259 260 257 252 250 245 242
270 271 272 277 286 296 306 308 303 288 270 258 250 246 247 249 251 255 259 261 261 260 256 252 246 244 242 243 249 256 261 262 264 262 258 256 251 247
265 268 269 272 279 287 297 302 302 294 277 260 251 249 251 252 254 257 258 259 257 257 249 242 239 240 241 246 253 258 260 261 264 266 265 264 261 259
261 266 268 270 273 280 287 291 292 289 279 265 256 255 256 257 257 257 256 256 253 247 238 236 237 240 245 249 251 250 252 255 259 262 262 263 265 267
256 263 266 267 269 273 279 281 282 279 274 266 260 261 260 256 252 250 247 245 240 235 234 234 235 234 234 236 242 247 253 257 260 262 263 264 266 266
249 257 262 263 264 267 272 275 276 271 267 265 262 262 256 247 240 234 230 228 228 230 229 225 222 222 229 239 246 251 254 258 262 266 269 270 270 270
245 251 256 259 261 263 267 270 271 266 261 259 259 254 245 234 226 225 225 226 226 221 213 212 217 226 237 242 244 246 249 255 261 266 269 271 273 276
241 245 248 253 256 259 263 265 265 260 252 254 255 248 239 232 231 232 232 225 214 210 205 207 213 220 228 232 236 241 247 253 259 263 269 275 280 283
240 242 244 248 251 254 258 260 260 254 246 243 243 240 239 242 243 233 220 206 198 197 197 201 207 211 220 227 234 237 241 249 259 269 276 282 287 290
237 239 241 243 245 248 252 254 255 251 243 236 234 236 240 242 233 213 198 192 189 191 193 197 205 210 218 230 237 240 251 264 274 281 286 291 294 297
229 232 235 237 238 241 244 248 249 246 241 234 229 229 228 224 216 206 199 194 190 190 193 198 202 208 224 244 254 264 275 281 282 284 289 293 297 300
217 221 226 230 232 234 237 241 243 240 236 230 226 225 223 220 213 202 195 194 194 194 196 199 206 220 240 257 269 277 282 285 285 285 286 289 292 295
207 214 219 224 226 228 230 233 235 235 231 225 216 215 214 209 201 197 197 199 201 201 205 213 224 239 255 267 274 277 280 282 284 285 287 291 293 294
202 209 214 217 219 220 222 224 226 228 225 218 210 208 205 201 199 200 204 206 209 213 220 230 243 257 268 274 275 278 282 285 288 290 293 293 292 291
198 200 204 208 210 212 213 215 218 220 216 213 209 204 200 199 203 208 211 212 217 225 237 249 259 266 272 277 280 282 285 288 291 293 294 293 290 287
195 193 195 199 201 203 204 208 211 212 210 207 204 197 194 199 206 211 213 217 225 239 252 262 268 273 277 281 283 285 287 289 291 291 291 288 285 284
188 188 190 192 193 195 198 200 201 201 197 193 189 188 192 201 209 213 218 227 238 252 263 269 273 277 281 284 287 289 290 291 291 291 290 287 284 285
184 186 187 187 188 190 191 190 189 187 183 181 183 189 197 207 215 221 230 240 251 261 268 273 278 283 286 288 289 292 294 294 294 293 293 291 289 289
183 186 186 185 184 184 183 182 180 178 178 181 186 195 205 215 224 233 242 252 259 266 273 278 283 288 290 292 292 293 294 294 294 293 294 294 293 292
179 183 183 179 177 177 176 176 176 177 179 184 192 203 214 224 233 242 250 258 264 270 276 282 286 288 290 292 295 297 297 297 297 297 297 296 295 294
Height
5767 5765 5762 5759 5757 5755 5752 5750 5751 5752 5754 5755 5757 5760 5762 5765 5768 5770 5772 5774 5776 5779 5781 5782 5784 5786 5788 5790 5792 5793 5795 5796 5798 5799 5801 5803 5805 5809
5760 5758 5756 5754 5751 5748 5746 5744 5743 5744 5746 5747 5749 5752 5755 5758 5761 5763 5764 5766 5768 5770 5772 5774 5776 5778 5780 5782 5784 5785 5787 5788 5790 5791 5792 5794 5796 5799
5753 5751 5749 5747 5745 5742 5739 5737 5735 5735 5737 5739 5741 5743 5746 5749 5752 5755 5757 5759 5760 5762 5764 5765 5767 5769 5771 5773 5775 5777 5779 5780 5781 5782 5783 5785 5788 5791
5744 5743 5741 5740 5738 5735 5732 5730 5728 5728 5729 5730 5733 5735 5738 5741 5744 5746 5748 5750 5752 5753 5754 5757 5759 5762 5764 5766 5768 5770 5772 5773 5773 5774 5775 5778 5780 5783
5735 5734 5733 5733 5731 5729 5726 5724 5722 5721 5721 5723 5725 5728 5730 5732 5735 5737 5739 5742 5744 5745 5748 5750 5753 5756 5759 5761 5763 5764 5765 5766 5767 5767 5768 5770 5772 5775
5726 5726 5725 5725 5724 5722 5720 5718 5716 5715 5715 5716 5718 5720 5722 5725 5727 5729 5731 5734 5737 5739 5741 5744 5747 5750 5753 5755 5756 5757 5758 5759 5760 5761 5762 5763 5766 5768
5716 5717 5717 5717 5717 5716 5714 5713 5711 5710 5710 5710 5712 5714 5715 5717 5720 5722 5724 5727 5729 5732 5735 5738 5741 5744 5746 5748 5750 5752 5753 5754 5755 5757 5758 5759 5760 5762
5705 5707 5708 5708 5709 5710 5709 5707 5706 5704 5704 5705 5707 5708 5709 5710 5712 5715 5717 5720 5723 5727 5729 5732 5736 5739 5741 5743 5745 5747 5749 5750 5752 5753 5754 5755 5756 5757
5693 5696 5698 5700 5701 5703 5703 5702 5700 5698 5699 5700 5701 5703 5704 5705 5707 5709 5711 5715 5719 5722 5725 5728 5731 5734 5737 5739 5741 5743 5744 5745 5747 5748 5749 5749 5750 5751
5680 5685 5688 5690 5692 5695 5696 5696 5695 5693 5693 5695 5697 5699 5700 5702 5704 5706 5709 5711 5715 5718 5721 5724 5728 5731 5734 5736 5738 5739 5740 5741 5742 5743 5743 5744 5744 5744
5665 5672 5677 5680 5683 5686 5689 5690 5690 5689 5689 5690 5693 5695 5697 5699 5701 5704 5706 5708 5711 5715 5718 5722 5725 5728 5731 5733 5735 5736 5736 5737 5737 5738 5738 5738 5739 5739
5651 5658 5665 5670 5674 5677 5680 5683 5684 5684 5685 5686 5688 5691 5694 5696 5698 5700 5703 5706 5709 5713 5716 5720 5723 5726 5728 5730 5732 5732 5733 5733 5734 5734 5734 5734 5734 5733
5635 5644 5652 5659 5664 5668 5672 5675 5678 5679 5680 5681 5684 5687 5690 5693 5695 5697 5699 5703 5706 5710 5715 5718 5721 5723 5725 5727 5729 5729 5730 5730 5730 5729 5729 5728 5728 5726
5621 5630 5639 5647 5653 5658 5663 5667 5671 5673 5675 5676 5679 5682 5686 5689 5691 5694 5697 5701 5705 5708 5712 5715 5717 5720 5722 5724 5725 5725 5726 5726 5725 5724 5723 5722 5721 5719
5606 5616 5626 5635 5642 5648 5653 5658 5663 5667 5670 5672 5675 5679 5682 5685 5688 5692 5696 5700 5703 5706 5709 5712 5714 5716 5718 5720 5720 5720 5721 5720 5719 5718 5717 5716 5714 5712
5593 5604 5613 5622 5630 5638 5644 5649 5656 5661 5664 5667 5671 5674 5677 5682 5686 5690 5694 5697 5700 5703 5706 5709 5711 5712 5714 5715 5715 5715 5715 5714 5713 5711 5709 5708 5706 5703
5582 5593 5602 5612 5621 5629 5636 5642 5649 5655 5659 5663 5666 5669 5674 5679 5684 5687 5691 5694 5698 5701 5703 5705 5707 5708 5709 5709 5709 5708 5707 5705 5704 5702 5700 5698 5697 5695
5573 5583 5594 5605 5614 5622 5629 5635 5642 5649 5653 5658 5661 5666 5671 5676 5681 5685 5688 5692 5695 5697 5699 5701 5702 5702 5703 5702 5702 5700 5699 5697 5695 5694 5692 5690 5688 5686
5567 5578 5589 5600 5609 5616 5623 5630 5637 5644 5648 5653 5657 5662 5668 5673 5678 5682 5685 5688 5691 5693 5694 5696 5696 5696 5696 5695 5694 5693 5691 5690 5688 5686 5684 5681 5679 5677
5565 5576 5587 5596 5604 5612 5618 5626 5633 5639 5644 5649 5654 5660 5665 5671 5676 5679 5682 5684 5686 5688 5689 5690 5690 5690 5689 5688 5687 5685 5684 5682 5680 5677 5674 5671 5669 5667
5565 5575 5584 5593 5601 5608 5616 5623 5630 5636 5642 5647 5653 5658 5663 5668 5672 5675 5677 5679 5681 5682 5683 5683 5682 5682 5681 5680 5679 5678 5675 5672 5670 5668 5665 5663 5660 5657
5566 5575 5583 5591 5599 5607 5614 5621 5628 5634 5640 5646 5651 5656 5661 5665 5668 5670 5672 5674 5675 5676 5676 5676 5675 5674 5673 5673 5671 5670 5668 5665 5662 5659 5656 5654 5651 5648
5567 5576 5584 5591 5599 5607 5614 5620 5627 5633 5639 5644 5649 5654 5658 5661 5664 5666 5667 5668 5669 5670 5669 5669 5668 5667 5666 5665 5663 5661 5659 5656 5654 5651 5649 5646 5643 5640